Location: Dyersburg
(36.0438°N, 89.3789°W)
Time: 16:50:33
(UTC+00:00)

Transit 2A - Visible Passes

Search period start: 21 February 2020 00:00
Search period end: 02 March 2020 00:00
Orbit: 600 x 959 km, 66.7° (Epoch: 21 February)

Date Brightness Start Highest point End Pass type
(mag) Time Alt. Az. Time Alt. Az. Time Alt. Az.
26 Feb 8.4 02:00:48 10° N 02:01:02 11° N 02:01:02 11° N visible
27 Feb 8.2 01:27:43 10° NNE 01:28:11 11° NNE 01:28:11 11° NNE visible
27 Feb 8.8 03:08:26 10° NNW 03:08:42 12° NNW 03:08:42 12° NNW visible
28 Feb 8.0 02:34:22 10° NNW 02:35:56 20° NNW 02:35:56 20° NNW visible
29 Feb 7.4 02:00:27 10° NNW 02:03:15 28° NNE 02:03:15 28° NNE visible
01 Mar 7.1 01:26:40 10° N 01:30:40 27° NE 01:30:40 27° NE visible
01 Mar 8.3 03:09:23 10° NW 03:11:13 21° NW 03:11:13 21° NW visible
